{"data":{"norad_id":39022,"intl_designator":"2012-070A","name":"YAMAL 402","alt_names":[],"object_type":"PAYLOAD","status":"ACTIVE","operator":null,"country":"CIS","launch_date":"2012-12-08","launch_site_code":"TYMSC","launch_vehicle":null,"mission":null,"orbit_class":"UNKNOWN","rcs_meters":39.8107,"size_class":null,"mass_kg":null,"dimensions":null,"purposes":["comms"],"wikipedia_slug":null,"has_3d_model":false,"image_url":null,"decayed_at":null,"tle_current":{"epoch":"2026-09-20T05:12:24.269184Z","epoch_age_seconds":46484,"freshness":"FRESH","line1":"1 39022U 12070A   26263.21694756  .00000082  00000+0  00000+0 0  9993","line2":"2 39022   1.5017  82.8090 0003584  90.2754 319.0403  1.00271848 50350","mean_motion":1.00271848,"eccentricity":0.0003584,"inclination_deg":1.5017,"raan_deg":82.809,"arg_perigee_deg":90.2754,"mean_anomaly_deg":319.0403,"bstar":0,"rev_number":5035,"period_min":1436.0960017412,"perigee_km":35771.465466408,"apogee_km":35801.689133618,"semimajor_km":42164.714300013,"source":"CELESTRAK","updated_at":"2026-09-20T09:00:35.179418Z"}}}